Regional Weather Roundup
Issued by NWS

Home | Current Version | Previous Version | Text Only | Print | Product List | Glossary On
Versions: 1 2 3 4 5 6 7 8 9 10 11 12 13 14 15 16 17 18 19 20 21 22 23 24 25 26 27 28 29 30 31 32 33 34 35 36 37 38 39 40 41 42 43 44 45 46 47 48 49 50
000
ASUS44 KFWD 221515
RWRTX
NORTH TEXAS HOURLY WEATHER ROUNDUP
NATIONAL WEATHER SERVICE FORT WORTH TX
900 AM CST SAT NOV 22 2014

NOTE: "FAIR" INDICATES FEW OR NO CLOUDS BELOW 12,000 FEET WITH NO
SIGNIFICANT WEATHER AND/OR OBSTRUCTIONS TO VISIBILITY.

TXZ118-119-221600-
DALLAS/FORT WORTH METROPLEX

CITY           SKY/WX    TMP DP  RH WIND       PRES   REMARKS
DFW AIRPORT    DRZL/FOG  56  56 100 SE17      30.02F VSB 3/4
DALLAS LOVE    CLOUDY    60  57  89 SE15      30.05S
FTW MEACHAM    FOG       60  58  92 SE12      30.03R VSB 3/4
DAL-EXECUTIVE  CLOUDY    60  57  89 SE16      30.03F FOG
FTW-ALLIANCE   CLOUDY    59  58  96 SE10      30.03R FOG
FTW-SPINKS     LGT RAIN  61  59  94 SE7       30.04S VSB 1
ARLINGTON      CLOUDY    60  57  89 SE16      30.03F FOG
GRAND PRAIRIE  CLOUDY    59  59 100 SE10G23   30.05S FOG
ADDISON        CLOUDY    59  57  94 SE14G20   30.06R FOG
MESQUITE       CLOUDY    61  55  82 SE9       30.07S
LANCASTER      CLOUDY    58  55  87 SE10      30.07S
$$

TXZ091>094-102>105-117-120-121-131>134-221600-
NORTH CENTRAL TEXAS

CITY           SKY/WX    TMP DP  RH WIND       PRES   REMARKS
SHRMAN/DENISON CLOUDY    60  59  96 SE22      30.04F
GAINESVILLE    CLOUDY    58  57  97 SE18G26   30.04S FOG
BOWIE          CLOUDY    59  59  99 SE7       30.02R FOG
BRIDGEPORT     CLOUDY    61  61 100 SE12G17   30.02R
DECATUR        CLOUDY    59  59 100 SE13      30.01R FOG
DENTON         CLOUDY    58  58 100 SE15      30.04S FOG
MCKINNEY       LGT RAIN  59  57  93 SE12      30.06R
GREENVILLE     CLOUDY    61  52  72 SE14G21   30.08S
ROCKWALL       CLOUDY    61  56  84 S13G18    30.07R
TERRELL        CLOUDY    62  55  77 SE15      30.08S
WAXAHACHIE     LGT RAIN  58  58 100 SE10      30.07R VSB 1
CLEBURNE       CLOUDY    63  63 100 SE13G21   30.04S
GRANBURY       CLOUDY    65  62  90 SE8       30.02S FOG
$$

TXZ083>090-098>101-113>116-127>130-139>142-154-155-221600-
WESTERN NORTH TEXAS

CITY           SKY/WX    TMP DP  RH WIND       PRES   REMARKS
WICHITA FALLS  CLOUDY    56  55  97 E13       29.97F
WF-KICKAPOO    CLOUDY    57  57 100 E9        29.99S
VERNON         CLOUDY    54  52  94 CALM      29.98R
ABILENE        PTSUNNY   66  60  81 S16       29.97R
ABILENE-DYESS  CLOUDY    65  60  84 S18G25    29.95S
BRECKENRIDGE   MOSUNNY   68  61  78 S14G20    29.97R
GRAHAM         CLOUDY    65  62  91 SE7       29.97S
MINERAL WELLS  CLOUDY    76  61  59 SE10      29.99S HAZE
STEPHENVILLE   CLOUDY    64  60  88 S10G20    30.02S
COMANCHE       RAIN      63  63 100 S12       29.99F
BROWNWOOD      CLOUDY    64  63  94 SE12G17   29.98F
COLEMAN        CLOUDY    64  63  97 E8        29.99R
$$

TXZ143>147-156>162-174-175-221600-
CENTRAL TEXAS

CITY           SKY/WX    TMP DP  RH WIND       PRES   REMARKS
WACO           CLOUDY    64  60  87 SE14      30.04F
WACO-TSTC      CLOUDY    63  61  94 SE9       30.05S FOG
WACO-MCGREGOR  CLOUDY    63  57  82 SE16      30.05S
HILLSBORO      CLOUDY    61  59  91 SE14      30.04F FOG
CORSICANA      CLOUDY    60  55  83 SE14      30.09R
MEXIA          CLOUDY    58  57  97 SE7       30.07R FOG
HEARNE         CLOUDY    63  60  90 E6        30.07S
CAMERON        CLOUDY    64  61  91 SE9       30.05R
TEMPLE         CLOUDY    63  57  82 SE16      30.03R
KILLEEN        CLOUDY    64  63  94 SE16G24   30.00F
KILLEEN-SKYLRK CLOUDY    63  57  82 SE15      30.01S
FORT HOOD      CLOUDY    65  62  90 SE14G23   30.01S
GATESVILLE     CLOUDY    64  63  94 SE9       30.04S
HAMILTON       CLOUDY    65  65 100 SE18G26   30.02S
LAMPASAS       CLOUDY    64  62  93 SE9G17    29.99S
$$

TXZ095>097-106>112-122>126-135>138-148>153-164>167-221600-
EAST TEXAS

CITY           SKY/WX    TMP DP  RH WIND       PRES   REMARKS
PARIS          PTSUNNY   57  52  82 SE12      30.11R
SULPHUR SPRNGS CLOUDY    60  52  75 S10G17    30.12S
MOUNT PLEASANT CLOUDY    57  54  88 SE6       30.14S
MINEOLA        CLOUDY    61  54  77 SE5       30.11S
TYLER          CLOUDY    60  52  74 SE10      30.09F
LONGVIEW       PTSUNNY   59  53  80 SE10      30.11F
MARSHALL       CLOUDY    53  48  83 S6        30.16R
ATHENS         CLOUDY    57  52  82 SE8       30.09S
PALESTINE      CLOUDY    62  55  80 SE8       30.10F
JACKSONVILLE   MOSUNNY   61  54  78 SE7       30.12S
HENDERSON      PTSUNNY   61  53  75 SE8       30.12F
NACOGDOCHES    SUNNY     59  52  77 SE14      30.12S
LUFKIN         SUNNY     59  53  80 SE10      30.10S
$$

SUPPLEMENTAL OBSERVATIONS (CENTRAL)

CITY           SKY/WX    TMP DP  RH WIND       PRES   REMARKS
LAKE TEXOMA      N/A     61  55  82 SE10        N/A
PAT MAYSE LAKE   N/A     55  52  88 E8          N/A
GREENVILLE       N/A     61  54  77 SE12        N/A
CEDAR HILL       N/A     59  55  88 SE7G16      N/A
ATHENS           N/A     59  52  77 S12         N/A
LAKE LIMESTONE   N/A     61  55  82 E6          N/A
MCGREGOR         N/A     63  57  82 SE12        N/A
$$

SUPPLEMENTAL OBSERVATIONS (WEST)

CITY           SKY/WX    TMP DP  RH WIND       PRES   REMARKS
GRANBURY         N/A     64  61  88 SE8G18      N/A
COMANCHE         N/A    N/A N/A N/A S13         N/A
HAMBY            N/A     66  59  77 S20         N/A
IVIE RESERVOIR   N/A     64  59  82 SE3         N/A
COLORADO BEND    N/A     63  59  88 S12         N/A
$$

SUPPLEMENTAL OBSERVATIONS (EAST)

CITY           SKY/WX    TMP DP  RH WIND       PRES   REMARKS
CADDO LAKE       N/A     57  54  88 SE5         N/A
N SABINE NF      N/A     57  54  88 MISG        N/A
$$

SUPPLEMENTAL OBSERVATIONS ARE A COLLECTION OF AUTOMATED INSTRUMENTS
THAT ARE MAINTAINED BY A VARIETY OF FEDERAL AND STATE AGENCIES.
CERTAIN ELEMENTS...SUCH AS HUMIDITY VALUES AND SUSTAINED WIND
SPEEDS...MAY BE APPROXIMATED.



USA.gov is the U.S. government's official web portal to all federal, state and local government web resources and services.